Regional Weather Roundup
Issued by NWS

Home | Current Version | Previous Version | Graphics & Text | Print | Product List | Glossary On
Versions: 1 2 3 4 5 6 7 8 9 10 11 12 13 14 15 16 17 18 19 20 21 22 23 24 25 26 27 28 29 30 31 32 33 34 35 36 37 38 39 40 41 42 43 44 45 46 47 48 49 50
000
ASUS43 KBIS 221102
RWRND

NORTH DAKOTA REGIONAL WEATHER ROUNDUP
NATIONAL WEATHER SERVICE BISMARCK ND
500 AM CST MON JAN 22 2018

NOTE: "FAIR" INDICATES FEW OR NO CLOUDS BELOW 12,000 FEET WITH NO
SIGNIFICANT WEATHER AND/OR OBSTRUCTIONS TO VISIBILITY.


NDZ001>003-009>011-017-221200-
NORTHWEST NORTH DAKOTA

CITY           SKY/WX    TMP DP  RH WIND       PRES   REMARKS
WILLISTON      PTCLDY     6   2  83 CALM      30.00S
MINOT          FOG        6   3  87 CALM      30.01S VSB 1/2
MINOT AFB      FOG        8   4  86 CALM      30.00F VSB 1/4
$$

NDZ018>021-031>035-040>046-221200-
SOUTHWEST NORTH DAKOTA

CITY           SKY/WX    TMP DP  RH WIND       PRES   REMARKS
BISMARCK       FOG       18  16  92 CALM      30.03R VSB 1/2
DICKINSON      CLEAR     15  11  83 W9        29.95S WCI   3
GARRISON         N/A      4   0  83 N6        30.00S WCI  -7
HETTINGER ARPT CLEAR     13   9  84 NW7       29.98F WCI   3
$$

NDZ004>008-012>016-024-026-027-054-221200-
NORTHEAST NORTH DAKOTA

CITY           SKY/WX    TMP DP  RH WIND       PRES   REMARKS
GRAND FORKS    CLOUDY    24  21  88 NE5       30.11R WCI  18
GRND FRKS AFB  CLOUDY   N/A N/A N/A NE5       30.11R
DEVILS LAKE    CLOUDY    22  21  96 E3        30.06S
$$

NDZ022-023-025-028>030-036>039-047>053-221200-
SOUTHEAST NORTH DAKOTA

CITY           SKY/WX    TMP DP  RH WIND       PRES   REMARKS
FARGO          CLOUDY    25  24  96 N13       30.03F WCI  14
JAMESTOWN      CLOUDY    23  21  92 E9        30.04R WCI  13
$$




USA.gov is the U.S. government's official web portal to all federal, state and local government web resources and services.